This is the latest recevied weather packets stored in our database for station/object DC7RY. If no packets are shown the sender has not sent any weather packets the latest 10 day(s).
| Time | Temp. | Humidity | Pressure | Rain* | Wind** | Luminosity | Snow |
|---|---|---|---|---|---|---|---|
| 1777711224 | 16.67° C | 52% | 1018.4 hPa | 0 mm | - | 74 W/m² | - |
| 1777710631 | 16.67° C | 52% | 1018.5 hPa | 0 mm | - | 81 W/m² | - |
| 1777710022 | 16.11° C | 56% | 1018.5 hPa | 0 mm | - | 42 W/m² | - |
| 1777709429 | 15.56° C | 55% | 1018.7 hPa | 0 mm | - | 39 W/m² | - |
| 1777708822 | 15.56° C | 56% | 1018.6 hPa | 0 mm | - | 40 W/m² | - |
| 1777708229 | 15.56° C | 58% | 1018.7 hPa | 0 mm | - | 40 W/m² | - |
| 1777707621 | 15.56° C | 58% | 1018.8 hPa | 0 mm | - | 44 W/m² | - |
| 1777707029 | 15.56° C | 59% | 1018.9 hPa | 0 mm | - | 42 W/m² | - |
| 1777706421 | 15.56° C | 59% | 1018.7 hPa | 0 mm | - | 42 W/m² | - |
| 1777705827 | 15° C | 58% | 1018.7 hPa | 0 mm | - | 100 W/m² | - |
| 1777705217 | 14.44° C | 58% | 1018.5 hPa | 0 mm | - | 102 W/m² | - |
| 1777704624 | 13.33° C | 63% | 1018.5 hPa | 0 mm | - | 71 W/m² | - |
| 1777704032 | 12.22° C | 63% | 1018.3 hPa | 0 mm | - | 66 W/m² | - |
| 1777703422 | 11.67° C | 68% | 1018.4 hPa | 0 mm | - | 53 W/m² | - |
| 1777702830 | 10.56° C | 70% | 1018.3 hPa | 0 mm | - | 41 W/m² | - |
| 1777702222 | 10° C | 72% | 1018.2 hPa | 0 mm | - | 37 W/m² | - |
| 1777701628 | 8.33° C | 76% | 1018.4 hPa | 0 mm | - | 35 W/m² | - |
| 1777701017 | 7.22° C | 82% | 1018.1 hPa | 0 mm | - | 33 W/m² | - |
| 1777700425 | 6.11° C | 88% | 1018.3 hPa | 0 mm | - | 29 W/m² | - |
| 1777699831 | 5.56° C | 94% | 1018.3 hPa | 0 mm | - | 28 W/m² | - |
| 1777699221 | 5° C | 94% | 1018.3 hPa | 0 mm | - | 26 W/m² | - |
| 1777698629 | 4.44° C | 94% | 1018.4 hPa | 0 mm | - | 25 W/m² | - |
| 1777698021 | 4.44° C | 95% | 1018.3 hPa | 0 mm | - | 25 W/m² | - |
| 1777697429 | 3.89° C | 96% | 1018.4 hPa | 0 mm | - | 22 W/m² | - |
| 1777696821 | 3.33° C | 97% | 1018.3 hPa | 0 mm | - | 18 W/m² | - |
* Rain latest hour (hover to see other rain measurements)
** Current wind speed in m/s (hover to see current wind gust speed)